This is the latest recevied weather packets stored in our database for station/object HASTNG-WX. If no packets are shown the sender has not sent any weather packets the latest 10 day(s).
| Time | Temp. | Humidity | Pressure | Rain* | Wind** | Luminosity | Snow |
|---|---|---|---|---|---|---|---|
| 1777942857 | 18.33° C | 57% | 970.2 hPa | 0 mm | - | - | - |
| 1777941931 | 18.89° C | 37% | 970.7 hPa | 0 mm | - | - | - |
| 1777941048 | 19.44° C | 41% | 971.5 hPa | 0 mm | - | - | - |
| 1777940130 | 20° C | 41% | 971.5 hPa | 0 mm | - | - | - |
| 1777939263 | 20.56° C | 41% | 971.5 hPa | 0 mm | - | - | - |
| 1777938331 | 21.11° C | 31% | 971.2 hPa | 0 mm | - | - | - |
| 1777937449 | 21.67° C | 31% | 971.2 hPa | 0 mm | - | - | - |
| 1777936530 | 21.67° C | 31% | 971.2 hPa | 0 mm | - | - | - |
| 1777935657 | 22.22° C | 31% | 971.2 hPa | 0 mm | - | - | - |
| 1777934731 | 22.78° C | 36% | 970.7 hPa | 0 mm | - | - | - |
| 1777933851 | 22.78° C | 36% | 971.1 hPa | 0 mm | - | - | - |
| 1777932930 | 22.78° C | 36% | 971.1 hPa | 0 mm | - | - | - |
| 1777932065 | 22.78° C | 36% | 971.1 hPa | 0 mm | - | - | - |
| 1777931129 | 22.78° C | 35% | 972.2 hPa | 0 mm | - | - | - |
| 1777930252 | 22.78° C | 35% | 972.2 hPa | 0 mm | - | - | - |
| 1777929329 | 22.78° C | 34% | 971.2 hPa | 0 mm | - | - | - |
| 1777928461 | 22.78° C | 34% | 971.2 hPa | 0 mm | - | - | - |
| 1777927535 | 23.33° C | 36% | 971.9 hPa | 0 mm | - | - | - |
| 1777926645 | 23.33° C | 36% | 971.9 hPa | 0 mm | - | - | - |
| 1777925736 | 23.33° C | 36% | 971.9 hPa | 0 mm | - | - | - |
| 1777924859 | 23.33° C | 38% | 971.2 hPa | 0 mm | - | - | - |
| 1777923936 | 23.33° C | 38% | 972.3 hPa | 0 mm | - | - | - |
| 1777923055 | 23.33° C | 38% | 972.3 hPa | 0 mm | - | - | - |
| 1777922136 | 22.78° C | 38% | 972.3 hPa | 0 mm | - | - | - |
| 1777921262 | 22.78° C | 38% | 972.3 hPa | 0 mm | - | - | - |
* Rain latest hour (hover to see other rain measurements)
** Current wind speed in m/s (hover to see current wind gust speed)